TimeEST,TemperatureF,Dew PointF,Humidity,Sea Level PressureIn,VisibilityMPH,Wind Direction,Wind SpeedMPH,Gust SpeedMPH,PrecipitationIn,Events,Conditions,WindDirDegrees,DateUTC
12:00 AM,23.4,13.6,66,29.85,10.0,Calm,Calm,-,N/A,,Clear,0,2011-01-22 05:00:00
12:20 AM,23.7,13.3,64,29.85,10.0,Calm,Calm,-,N/A,,Clear,0,2011-01-22 05:20:00
12:40 AM,23.5,14.2,67,29.85,10.0,Calm,Calm,-,N/A,,Scattered Clouds,0,2011-01-22 05:40:00
1:00 AM,23.9,13.3,64,29.84,10.0,Calm,Calm,-,N/A,,Scattered Clouds,0,2011-01-22 06:00:00
1:20 AM,23.9,14.0,66,29.83,10.0,Calm,Calm,-,N/A,,Mostly Cloudy,0,2011-01-22 06:20:00
1:40 AM,24.1,14.0,65,29.83,10.0,Calm,Calm,-,N/A,,Overcast,0,2011-01-22 06:40:00
2:00 AM,23.4,14.7,70,29.83,10.0,Calm,Calm,-,N/A,,Scattered Clouds,0,2011-01-22 07:00:00
2:20 AM,22.1,13.8,70,29.83,10.0,Calm,Calm,-,N/A,,Clear,0,2011-01-22 07:20:00
3:00 AM,22.1,14.4,72,29.84,10.0,Calm,Calm,-,N/A,,Scattered Clouds,0,2011-01-22 08:00:00
3:20 AM,21.7,14.7,74,29.84,10.0,Calm,Calm,-,N/A,,Scattered Clouds,0,2011-01-22 08:20:00
3:40 AM,21.9,14.7,74,29.84,10.0,Calm,Calm,-,N/A,,Mostly Cloudy,0,2011-01-22 08:40:00
4:00 AM,22.3,14.4,72,29.84,10.0,Calm,Calm,-,N/A,,Mostly Cloudy,0,2011-01-22 09:00:00
4:20 AM,21.6,13.8,72,29.85,10.0,Calm,Calm,-,N/A,,Scattered Clouds,0,2011-01-22 09:20:00
4:40 AM,20.3,14.0,77,29.84,10.0,Calm,Calm,-,N/A,,Clear,0,2011-01-22 09:40:00
5:00 AM,20.1,14.7,80,29.84,10.0,Calm,Calm,-,N/A,,Clear,0,2011-01-22 10:00:00
5:20 AM,21.0,14.5,76,29.85,10.0,Calm,Calm,-,N/A,,Mostly Cloudy,0,2011-01-22 10:20:00
5:40 AM,21.2,15.4,78,29.84,10.0,Calm,Calm,-,N/A,,Overcast,0,2011-01-22 10:40:00
6:00 AM,21.7,15.4,77,29.84,10.0,Calm,Calm,-,N/A,,Overcast,0,2011-01-22 11:00:00
6:20 AM,21.6,14.7,75,29.85,10.0,Calm,Calm,-,N/A,,Overcast,0,2011-01-22 11:20:00
6:40 AM,21.4,15.1,77,29.85,10.0,Calm,Calm,-,N/A,,Overcast,0,2011-01-22 11:40:00
7:00 AM,21.6,15.3,77,29.85,10.0,Calm,Calm,-,N/A,,Overcast,0,2011-01-22 12:00:00
7:20 AM,21.9,14.4,73,29.85,10.0,Calm,Calm,-,N/A,,Scattered Clouds,0,2011-01-22 12:20:00
7:40 AM,21.6,14.9,76,29.85,10.0,Calm,Calm,-,N/A,,Scattered Clouds,0,2011-01-22 12:40:00
8:00 AM,20.7,14.9,78,29.85,10.0,Calm,Calm,-,N/A,,Scattered Clouds,0,2011-01-22 13:00:00
8:20 AM,21.7,15.8,78,29.86,10.0,Calm,Calm,-,N/A,,Mostly Cloudy,0,2011-01-22 13:20:00
8:40 AM,22.3,15.3,74,29.86,10.0,Calm,Calm,-,N/A,,Overcast,0,2011-01-22 13:40:00
9:00 AM,23.2,14.7,70,29.86,10.0,Calm,Calm,-,N/A,,Mostly Cloudy,0,2011-01-22 14:00:00
9:20 AM,23.5,13.8,66,29.87,10.0,Calm,Calm,-,N/A,,Mostly Cloudy,0,2011-01-22 14:20:00
9:40 AM,24.8,12.6,60,29.87,10.0,Calm,Calm,-,N/A,,Scattered Clouds,0,2011-01-22 14:40:00
10:00 AM,26.6,12.2,55,29.87,10.0,Calm,Calm,-,N/A,,Clear,0,2011-01-22 15:00:00
10:20 AM,28.2,11.8,50,29.87,10.0,Calm,Calm,-,N/A,,Clear,0,2011-01-22 15:20:00
11:00 AM,30.4,9.3,41,29.87,10.0,Calm,Calm,-,N/A,,Clear,0,2011-01-22 16:00:00
11:20 AM,32.2,8.1,36,29.86,10.0,Calm,Calm,-,N/A,,Clear,0,2011-01-22 16:20:00
11:40 AM,32.0,7.7,36,29.86,10.0,Calm,Calm,-,N/A,,Scattered Clouds,0,2011-01-22 16:40:00
12:00 PM,33.8,7.9,34,29.85,10.0,West,3.5,-,N/A,,Clear,260,2011-01-22 17:00:00
12:20 PM,34.7,8.6,34,29.85,10.0,Calm,Calm,-,N/A,,Clear,0,2011-01-22 17:20:00
12:40 PM,36.0,5.5,28,29.84,10.0,North,9.2,-,N/A,,Clear,360,2011-01-22 17:40:00
1:00 PM,36.9,5.0,26,29.83,10.0,North,8.1,-,N/A,,Clear,360,2011-01-22 18:00:00
1:20 PM,38.1,6.3,27,29.82,10.0,North,5.8,-,N/A,,Clear,360,2011-01-22 18:20:00
1:40 PM,37.4,6.1,27,29.82,10.0,North,9.2,17.3,N/A,,Clear,360,2011-01-22 18:40:00
2:00 PM,37.6,6.4,27,29.82,10.0,North,8.1,-,N/A,,Clear,360,2011-01-22 19:00:00
2:20 PM,37.6,6.4,27,29.81,10.0,North,8.1,-,N/A,,Clear,360,2011-01-22 19:20:00
2:40 PM,37.6,5.4,26,29.82,10.0,North,9.2,18.4,N/A,,Clear,360,2011-01-22 19:40:00
3:00 PM,37.4,2.5,23,29.82,10.0,North,11.5,17.3,N/A,,Clear,360,2011-01-22 20:00:00
3:20 PM,36.7,-1.7,20,29.83,10.0,North,9.2,18.4,N/A,,Clear,360,2011-01-22 20:20:00
3:40 PM,37.2,-4.7,17,29.83,10.0,North,11.5,16.1,N/A,,Clear,360,2011-01-22 20:40:00
4:00 PM,36.1,-6.0,16,29.84,10.0,North,5.8,9.2,N/A,,Clear,360,2011-01-22 21:00:00
4:20 PM,35.6,-3.6,19,29.85,10.0,North,9.2,-,N/A,,Clear,360,2011-01-22 21:20:00
4:40 PM,34.7,-0.9,22,29.85,10.0,North,10.4,-,N/A,,Clear,360,2011-01-22 21:40:00
5:00 PM,34.0,3.4,28,29.86,10.0,North,10.4,-,N/A,,Clear,360,2011-01-22 22:00:00
5:20 PM,32.9,4.8,31,29.88,10.0,North,8.1,-,N/A,,Clear,360,2011-01-22 22:20:00
5:40 PM,32.0,6.1,34,29.89,10.0,North,8.1,-,N/A,,Clear,360,2011-01-22 22:40:00
6:00 PM,31.3,7.2,36,29.90,10.0,North,5.8,-,N/A,,Clear,360,2011-01-22 23:00:00
6:20 PM,30.7,7.2,37,29.92,10.0,North,9.2,-,N/A,,Clear,360,2011-01-22 23:20:00
6:40 PM,30.4,6.8,37,29.92,10.0,North,11.5,17.3,N/A,,Clear,360,2011-01-22 23:40:00
7:00 PM,30.0,6.6,37,29.92,10.0,North,3.5,-,N/A,,Clear,360,2011-01-23 00:00:00
7:20 PM,29.3,7.0,39,29.93,10.0,NNW,4.6,-,N/A,,Clear,340,2011-01-23 00:20:00
7:40 PM,29.3,6.8,39,29.93,10.0,North,5.8,-,N/A,,Clear,360,2011-01-23 00:40:00
8:00 PM,27.7,8.1,44,29.93,10.0,Calm,Calm,-,N/A,,Clear,0,2011-01-23 01:00:00
8:20 PM,27.1,7.5,44,29.93,10.0,Calm,Calm,-,N/A,,Clear,0,2011-01-23 01:20:00
8:40 PM,27.0,7.9,45,29.94,10.0,Calm,Calm,-,N/A,,Clear,0,2011-01-23 01:40:00
9:00 PM,25.5,8.2,48,29.94,10.0,Calm,Calm,-,N/A,,Clear,0,2011-01-23 02:00:00
9:20 PM,22.6,11.3,62,29.94,10.0,Calm,Calm,-,N/A,,Clear,0,2011-01-23 02:20:00
9:40 PM,21.4,12.0,67,29.94,10.0,Calm,Calm,-,N/A,,Clear,0,2011-01-23 02:40:00
10:00 PM,19.6,11.1,70,29.94,10.0,Calm,Calm,-,N/A,,Clear,0,2011-01-23 03:00:00
10:20 PM,17.4,11.7,78,29.94,10.0,Calm,Calm,-,N/A,,Clear,0,2011-01-23 03:20:00
10:40 PM,17.1,10.2,75,29.94,10.0,Calm,Calm,-,N/A,,Clear,0,2011-01-23 03:40:00
11:00 PM,17.1,11.7,79,29.94,10.0,Calm,Calm,-,N/A,,Clear,0,2011-01-23 04:00:00
11:20 PM,17.4,11.7,78,29.95,10.0,Calm,Calm,-,N/A,,Clear,0,2011-01-23 04:20:00